{"data":{"norad_id":46461,"intl_designator":"2020-065H","name":"JILIN-1 GAOFEN 3I","alt_names":[],"object_type":"PAYLOAD","status":"ACTIVE","operator":null,"country":"PRC","launch_date":"2020-09-15","launch_site_code":"SEAL","launch_vehicle":null,"mission":null,"orbit_class":"UNKNOWN","rcs_meters":null,"size_class":null,"mass_kg":null,"dimensions":null,"purposes":[],"wikipedia_slug":null,"has_3d_model":false,"image_url":null,"decayed_at":null,"tle_current":{"epoch":"2026-05-25T04:06:42.181920Z","epoch_age_seconds":57350,"freshness":"FRESH","line1":"1 46461U 20065H   26145.17132155  .00468825  93585-4  10617-2 0  9991","line2":"2 46461  97.2187 205.9609 0008103 173.5598 186.5785 15.97512166316685","mean_motion":15.97512166,"eccentricity":0.0008103,"inclination_deg":97.2187,"raan_deg":205.9609,"arg_perigee_deg":173.5598,"mean_anomaly_deg":186.5785,"bstar":0.0010617,"rev_number":31668,"period_min":90.140158594573,"perigee_km":275.92751082117,"apogee_km":286.7198327859,"semimajor_km":6659.4606718035,"source":"CELESTRAK","updated_at":"2026-05-25T13:37:56.322167Z"}}}